Regional Weather Roundup
Issued by NWS

Home | Current Version | Previous Version | Graphics & Text | Print | Product List | Glossary On
Versions: 1 2 3 4 5 6 7 8 9 10 11 12 13 14 15 16 17 18 19 20 21 22 23 24 25 26 27 28 29 30 31 32 33 34 35 36 37 38 39 40 41 42 43 44 45 46 47 48 49
000
ASUS43 KDMX 010707
RWRIA

WEATHER ROUNDUP FOR IOWA
NATIONAL WEATHER SERVICE DES MOINES IA
200 AM CDT WED OCT 01 2014

NOTE: "FAIR" INDICATES FEW OR NO CLOUDS BELOW 12,000 FEET WITH NO
SIGNIFICANT WEATHER AND/OR OBSTRUCTIONS TO VISIBILITY.

* - THESE STATIONS ARE NOT NWS STATIONS...THUS NOT UNDER NWS
QUALITY CONTROL.  THEY ALSO DO NOT REPORT WEATHER SUCH
AS PRECIPITATION OR FOG.

IAZ001>003-012>014-020>022-031>034-043>046-010800-
   NORTHWEST IOWA

CITY           SKY/WX    TMP DP  RH WIND       PRES   REMARKS
CARROLL *      LGT RAIN  59  59 100 SE9       29.82S
CHEROKEE *     CLOUDY    61  59  94 SE13G18   29.78R
DENISON *      RAIN      63  63 100 SE12G22   29.77R
LE MARS *        N/A     63  61  94 SE12      29.75F
ORANGE CITY *  CLOUDY    63  59  88 S9        29.76F
SHELDON *      CLOUDY    61  61 100 S13       29.76S
SIOUX CITY     CLOUDY    62  61  96 SE7       29.74F
SPENCER        CLOUDY    59  56  89 SE13G24   29.79R
STORM LAKE *   CLOUDY    59  57  94 SE14G21   29.80S FOG
$$

IAZ055>058-069>071-079>083-090>094-010800-
   SOUTHWEST IOWA

CITY           SKY/WX    TMP DP  RH WIND       PRES   REMARKS
ATLANTIC *     LGT RAIN  63  63 100 E9        29.76F
AUDUBON *      RAIN      63  57  82 E7        29.81F
COUNCIL BLFS * LGT RAIN  64  64 100 E8        29.78R
CRESTON *      LGT RAIN  63  63 100 E6        29.82R
HARLAN  *      RAIN      63  63 100 E6        29.83F
LAMONI         CLOUDY    66  60  81 E7        29.80F
RED OAK *      CLOUDY    66  64  94 SE8       29.76F
SHENANDOAH *   CLOUDY    66  64  94 VRB7      29.76S
$$

IAZ047>049-059>061-072>074-084-010800-
   CENTRAL IOWA

CITY           SKY/WX    TMP DP  RH WIND       PRES   REMARKS
AMES           CLOUDY    57  55  93 E6        29.84S
ANKENY *       CLOUDY    61  55  82 SE7       29.83R
CHARITON *     CLOUDY    63  57  82 SE12      29.83S
DES MOINES     CLOUDY    64  56  75 SE9       29.82F
GRINNELL*      CLOUDY    57  50  77 E12G18    29.87S
KNOXVILLE *    MOCLDY    61  55  82 SE12      29.83S
MARSHALLTOWN   CLOUDY    56  50  80 E12       29.86F
PELLA *        CLOUDY    59  54  82 SE10G18   29.86S
PERRY *        LGT RAIN  59  57  94 E5        29.84R
$$

IAZ004>006-015-016-023>025-035-036-010800-
   NORTH CENTRAL IOWA

CITY           SKY/WX    TMP DP  RH WIND       PRES   REMARKS
ALGONA *       CLOUDY    59  55  88 SE17G25   29.82R
CLARION *      CLOUDY    55  52  88 SE14G20   29.84S
ESTHERVILLE    CLOUDY    57  57 100 SE13      29.79F FOG
FORT DODGE *   CLOUDY    55  54  94 SE9       29.84R
MASON CITY     HVY RAIN  52  51  97 S12G17    29.89S FOG
FOREST CITY *  CLOUDY    54  54 100 SE13      29.84F
IOWA FALLS *   CLOUDY    54  50  87 E9        29.87S
$$

IAZ007>011-017>019-026>030-037>042-050>054-066-010800-
   NORTHEAST IOWA

CITY           SKY/WX    TMP DP  RH WIND       PRES   REMARKS
CHARLES CITY * CLOUDY    52  46  82 SE14      29.90S
CLINTON *      CLEAR     50  45  81 E12       29.99S
DECORAH *      PTCLDY    46  45  93 SE8       29.93F
MONTICELLO *   CLEAR     50  46  87 E13       29.93F
OELWEIN *      CLOUDY    52  46  82 E9G16     29.93S
WATERLOO       CLOUDY    52  46  80 E13       29.89F
$$

IAZ064-065-067-068-078-010800-
   EAST CENTRAL IOWA

CITY           SKY/WX    TMP DP  RH WIND       PRES   REMARKS
IOWA CITY      PTCLDY    53  49  86 E10       29.92F
MT. PLEASANT * PTCLDY    55  48  76 E10       29.90F
MUSCATINE *    CLEAR     54  48  82 E8        29.93F
$$

IAZ062-063-075>077-085>089-095>099-010800-
   SOUTHEAST IOWA

CITY           SKY/WX    TMP DP  RH WIND       PRES   REMARKS
BURLINGTON     PTCLDY    55  50  83 E9        29.92S
FAIRFIELD *    MOCLDY    55  50  82 E12       29.89S
FORT MADISON * CLEAR     57  52  82 E7        29.91F HAZE
KEOKUK *       CLEAR     57  52  82 E14       29.89F
OSKALOOSA *      N/A     57  54  88 SE10      29.87S
CENTERVILLE *  CLEAR     59  59 100 E9        29.86F
OTTUMWA        MOCLDY    57  52  83 SE13      29.87S
WASHINGTON *   CLEAR     54  50  87 SE13      29.90S
$$

ABBREVIATIONS USED IN REMARKS
   TC - TEMPERATURES IN CELSIUS
  WCI - WIND CHILL INDEX
   HX - HEAT INDEX
  VSB - VISIBILITY
$$




USA.gov is the U.S. government's official web portal to all federal, state and local government web resources and services.